[[{"header":{"parameterUnit":"m.s-1","parameterCategory":1,"la1":30.2991,"la2":30.254,"lo1":-89.0895,"lo2":-89.0444,"dy":0.0017,"dx":0.0017,"nx":28,"ny":28,"refTime":"2025-01-02T09:00:00:Z","depth":0,"parameterNumber":2,"parameterNumberName":"U-component_of_WINDS"},"data":[0,0,0,0,0,0,0,0,0,0,0,0,0,0,0,0,0,0,0,0,0,0,0,0,0,0,0,0,0,0,0,0,0,0,0,0,0,0,0,0,0,0,0,0,0,0,0,0,0,0,0,0,0,0,0,0,0,0,-0.3338,-0.3338,0,-0.3324,-0.3324,-0.3323,-0.3318,-0.3318,-0.3318,-0.3318,-0.3304,-0.3303,-0.3303,0,0,0,0,0,0,0,0,0,0,0,0,0,-0.336,-0.336,-0.3338,-0.3338,-0.3338,-0.3324,-0.3324,-0.3323,-0.3318,-0.3318,-0.3318,-0.3318,-0.3304,-0.3303,-0.3303,0,0,0,0,0,0,0,0,0,0,0,0,0,-0.3349,-0.336,-0.3338,-0.3333,-0.3332,-0.3324,-0.3324,-0.3323,-0.3318,-0.3318,-0.3318,-0.3318,-0.3304,-0.3303,-0.3303,-0.3298,0,0,-0.3301,-0.3301,0,0,0,0,0,0,0,0,-0.335,-0.3348,-0.3334,-0.3333,-0.3333,-0.3323,-0.3326,-0.3315,-0.3318,-0.3323,-0.3318,-0.3318,-0.331,-0.3309,-0.3306,-0.3297,-0.3297,-0.3301,-0.33,-0.33,-0.33,0,0,0,0,0,0,0,-0.335,-0.3349,-0.3332,-0.3334,-0.3333,-0.3332,-0.333,-0.3324,-0.3317,-0.3323,-0.3322,-0.3321,-0.331,-0.3307,-0.3306,-0.3297,-0.3301,-0.33,-0.33,-0.33,-0.3284,-0.3283,0,0,0,0,0,0,-0.3352,-0.3349,-0.3333,-0.3332,-0.3341,-0.3331,-0.3329,-0.3326,-0.3317,-0.3315,-0.3321,-0.3321,-0.3308,-0.3306,-0.3305,-0.3299,-0.33,-0.33,-0.3299,-0.3284,-0.3284,-0.3283,0,0,0,0,0,0,-0.3352,-0.335,-0.3333,-0.334,-0.3338,-0.3331,-0.3327,-0.3325,-0.3323,-0.3315,-0.3314,-0.3319,-0.3308,-0.3306,-0.33,-0.3299,-0.3299,-0.3299,-0.3284,-0.3284,-0.3284,-0.3287,0,0,0,0,0,0,-0.3353,-0.3351,-0.3349,-0.334,-0.3338,-0.3328,-0.3327,-0.3325,-0.3321,-0.3321,-0.3313,-0.3312,-0.3308,-0.3301,-0.3299,-0.3298,-0.3298,-0.3284,-0.3284,-0.3284,-0.3287,-0.3287,-0.3287,0,0,0,0,0,-0.3354,-0.335,-0.3349,-0.3347,-0.3335,-0.3328,-0.3327,-0.3322,-0.3321,-0.3319,-0.3315,-0.3312,-0.3299,-0.33,-0.3298,-0.3297,-0.3284,-0.3284,-0.3284,-0.3287,-0.3287,-0.3287,0,0,0,0,0,0,-0.3359,-0.3349,-0.3347,-0.3341,-0.3335,-0.3327,-0.3324,-0.3322,-0.3316,-0.3316,-0.3311,-0.3309,-0.3303,-0.3299,-0.3301,-0.3292,-0.3291,-0.3291,-0.3294,-0.3294,-0.3295,-0.3296,-0.3298,0,0,0,0,0,-0.3359,-0.3354,-0.3346,-0.3341,-0.3338,-0.3332,-0.3329,-0.3325,-0.3319,-0.3317,-0.3312,-0.3306,-0.3301,-0.3297,-0.3292,-0.3286,-0.3285,-0.3284,-0.3284,-0.3285,-0.3284,-0.3281,-0.3281,-0.3283,-0.3283,-0.3283,0,0,-0.336,-0.3354,-0.3351,-0.3342,-0.3337,-0.3332,-0.333,-0.3325,-0.3321,-0.3316,-0.331,-0.3306,-0.33,-0.3294,-0.3291,-0.329,-0.3283,-0.3284,-0.3285,-0.3284,-0.3281,-0.3281,-0.328,-0.3283,-0.3283,-0.3283,0,0,-0.3358,-0.3353,-0.3348,-0.3344,-0.3337,-0.3333,-0.3332,-0.3324,-0.3321,-0.3315,-0.3311,-0.3307,-0.3297,-0.3293,-0.3289,-0.3286,-0.3284,-0.3285,-0.3285,-0.3282,-0.3282,-0.3282,-0.3281,-0.328,-0.3285,-0.3285,-0.3285,0,-0.336,-0.3352,-0.3346,-0.3341,-0.3338,-0.3333,-0.3329,-0.3324,-0.3316,-0.3314,-0.3313,-0.3302,-0.3297,-0.329,-0.3289,-0.3287,-0.3285,-0.3286,-0.3282,-0.3282,-0.3282,-0.3281,-0.328,-0.3285,-0.3285,-0.3285,-0.3285,0,-0.3354,-0.3349,-0.3346,-0.3338,-0.3334,-0.3329,-0.3323,-0.332,-0.3317,-0.3313,-0.3306,-0.3301,-0.3294,-0.3292,-0.3289,-0.3285,-0.3285,-0.3283,-0.3283,-0.3282,-0.3281,-0.328,-0.3285,-0.3285,-0.3285,-0.3285,0,0,-0.3355,-0.3344,-0.3343,-0.334,-0.3332,-0.3327,-0.3322,-0.3316,-0.3313,-0.3308,-0.3303,-0.3296,-0.3295,-0.3291,-0.3287,-0.3285,-0.3283,-0.3284,-0.3283,-0.3284,-0.3277,-0.3278,-0.3278,-0.3281,-0.3281,-0.3281,-0.3278,0,-0.3352,-0.3343,-0.3338,-0.3331,-0.3326,-0.3322,-0.3318,-0.3313,-0.3309,-0.3304,-0.33,-0.3295,-0.3293,-0.3291,-0.3288,-0.3284,-0.3281,-0.3284,-0.3277,-0.3277,-0.3279,-0.3277,-0.3278,-0.3276,-0.3277,-0.3277,-0.3277,0,-0.3348,-0.3342,-0.3335,-0.3327,-0.3325,-0.3321,-0.3315,-0.3311,-0.3305,-0.3302,-0.3298,-0.3295,-0.3289,-0.3289,-0.3282,-0.3284,-0.3281,-0.3278,-0.3278,-0.3277,-0.3277,-0.3277,-0.3275,-0.3275,-0.3277,-0.3277,-0.3277,0,-0.3349,-0.334,-0.3334,-0.3331,-0.3322,-0.332,-0.3316,-0.331,-0.3307,-0.3301,-0.3299,-0.3293,-0.329,-0.3286,-0.3281,-0.3281,-0.3274,-0.3274,-0.3272,-0.3272,-0.3271,-0.3271,-0.3269,-0.3269,-0.3269,-0.3269,-0.3269,0,-0.3347,-0.3342,-0.3335,-0.3331,-0.3326,-0.3321,-0.3316,-0.3312,-0.3307,-0.3303,-0.3299,-0.3295,-0.3289,-0.3284,-0.3281,-0.3275,-0.3274,-0.3272,-0.3271,-0.3272,-0.3272,-0.327,-0.327,-0.3269,-0.3269,-0.3269,-0.3269,0,-0.3347,-0.3342,-0.3335,-0.3328,-0.3326,-0.3322,-0.3316,-0.3313,-0.3308,-0.3303,-0.3302,-0.3295,-0.329,-0.3285,-0.3277,-0.3275,-0.3269,-0.3268,-0.3271,-0.3271,-0.3269,-0.327,-0.3266,-0.3265,-0.3266,-0.3266,-0.3266,0,-0.3346,-0.3342,-0.3334,-0.3331,-0.3328,-0.3323,-0.3319,-0.3314,-0.331,-0.3303,-0.33,-0.3295,-0.329,-0.3281,-0.3276,-0.327,-0.3269,-0.3268,-0.3268,-0.3269,-0.3269,-0.3269,-0.3269,-0.3268,-0.3268,-0.3268,-0.3268,0,-0.3344,-0.3342,-0.3337,-0.3331,-0.3326,-0.3321,-0.3316,-0.3314,-0.3308,-0.3304,-0.3298,-0.3294,-0.3287,-0.3281,-0.3275,-0.3271,-0.3269,-0.3268,-0.3267,-0.3268,-0.327,-0.3269,-0.3272,-0.3268,-0.3268,-0.3268,-0.3268,-0.3268,-0.3344,-0.334,-0.3334,-0.3329,-0.3324,-0.332,-0.3316,-0.3312,-0.3307,-0.33,-0.3297,-0.3291,-0.3286,-0.3277,-0.3274,-0.3269,-0.3268,-0.3267,-0.3267,-0.3267,-0.3267,-0.3271,-0.3268,-0.3268,-0.3268,-0.3268,-0.3268,0,-0.3342,-0.3338,-0.3333,-0.3325,-0.3321,-0.3319,-0.3313,-0.331,-0.3305,-0.33,-0.3295,-0.3288,-0.3283,-0.3277,-0.3271,-0.3269,-0.3267,-0.3267,-0.3268,-0.3267,-0.3268,-0.3269,-0.3269,-0.3269,-0.3269,-0.3269,-0.3269,-0.3269,-0.334,-0.3334,-0.3331,-0.3324,-0.332,-0.3314,-0.3311,-0.3306,-0.3302,-0.3295,-0.329,-0.3287,-0.3282,-0.3275,-0.327,-0.3269,-0.3267,-0.3267,-0.3265,-0.3267,-0.3267,-0.3267,-0.3268,-0.3267,-0.3267,-0.3264,-0.3264,-0.3264]},{"header":{"parameterUnit":"m.s-1","parameterCategory":1,"la1":30.2991,"la2":30.254,"lo1":-89.0895,"lo2":-89.0444,"dy":0.0017,"dx":0.0017,"nx":28,"ny":28,"refTime":"2025-01-02T09:00:00:Z","depth":0,"parameterNumber":3,"parameterNumberName":"V-component_of_WINDS"},"data":[0,0,0,0,0,0,0,0,0,0,0,0,0,0,0,0,0,0,0,0,0,0,0,0,0,0,0,0,0,0,0,0,0,0,0,0,0,0,0,0,0,0,0,0,0,0,0,0,0,0,0,0,0,0,0,0,0,0,-2.519,-2.5193,0,-2.5433,-2.5435,-2.5438,-2.554,-2.554,-2.5539,-2.5539,-2.5788,-2.5795,-2.5802,0,0,0,0,0,0,0,0,0,0,0,0,0,-2.482,-2.4826,-2.519,-2.5193,-2.5196,-2.5432,-2.5436,-2.5439,-2.554,-2.554,-2.5539,-2.5538,-2.5786,-2.5794,-2.5803,0,0,0,0,0,0,0,0,0,0,0,0,0,-2.5013,-2.4829,-2.5189,-2.5275,-2.5285,-2.5432,-2.5436,-2.544,-2.554,-2.554,-2.5539,-2.5538,-2.5783,-2.5794,-2.5804,-2.5884,0,0,-2.5837,-2.5841,0,0,0,0,0,0,0,0,-2.5002,-2.5027,-2.5259,-2.5269,-2.5281,-2.5455,-2.5397,-2.5589,-2.554,-2.5443,-2.5539,-2.5538,-2.5678,-2.5697,-2.5745,-2.5895,-2.5906,-2.5838,-2.5844,-2.5849,-2.5852,0,0,0,0,0,0,0,-2.4989,-2.5017,-2.5286,-2.5263,-2.5276,-2.5303,-2.533,-2.5434,-2.5562,-2.5452,-2.546,-2.5487,-2.5684,-2.5734,-2.5751,-2.591,-2.5837,-2.5847,-2.5853,-2.5857,-2.6144,-2.6145,0,0,0,0,0,0,-2.4961,-2.5005,-2.5278,-2.5293,-2.5137,-2.531,-2.534,-2.54,-2.5561,-2.5585,-2.5487,-2.5491,-2.5716,-2.5739,-2.576,-2.5867,-2.5848,-2.5858,-2.5865,-2.6143,-2.6144,-2.6146,0,0,0,0,0,0,-2.4953,-2.4984,-2.5269,-2.5152,-2.519,-2.5317,-2.5384,-2.5405,-2.5455,-2.5588,-2.5612,-2.5515,-2.5717,-2.5745,-2.5854,-2.5877,-2.5863,-2.5873,-2.6141,-2.6143,-2.6145,-2.6079,0,0,0,0,0,0,-2.4941,-2.4981,-2.501,-2.5152,-2.5196,-2.5356,-2.5385,-2.5411,-2.5473,-2.548,-2.562,-2.5642,-2.5718,-2.5837,-2.5864,-2.5892,-2.5881,-2.614,-2.6142,-2.6144,-2.608,-2.6078,-2.6077,0,0,0,0,0,-2.4928,-2.4982,-2.5011,-2.5044,-2.5236,-2.5357,-2.5382,-2.5468,-2.5475,-2.5507,-2.5593,-2.5638,-2.587,-2.5847,-2.5878,-2.5909,-2.6139,-2.6142,-2.6144,-2.608,-2.6079,-2.6077,0,0,0,0,0,0,-2.4839,-2.5001,-2.5036,-2.5137,-2.5232,-2.5374,-2.5416,-2.5463,-2.5559,-2.5561,-2.5665,-2.5696,-2.5796,-2.5864,-2.5835,-2.5998,-2.6009,-2.6018,-2.5949,-2.5949,-2.5948,-2.5929,-2.589,0,0,0,0,0,-2.4831,-2.4915,-2.5053,-2.5128,-2.5175,-2.5287,-2.5343,-2.5402,-2.5505,-2.5546,-2.564,-2.5739,-2.5835,-2.5896,-2.5991,-2.6091,-2.6125,-2.6128,-2.6127,-2.6125,-2.6132,-2.6194,-2.6198,-2.6155,-2.6155,-2.6155,0,0,-2.4816,-2.4915,-2.4961,-2.5113,-2.5194,-2.528,-2.532,-2.5409,-2.5475,-2.556,-2.5668,-2.574,-2.5859,-2.5964,-2.6015,-2.6023,-2.6152,-2.6129,-2.6127,-2.6134,-2.6197,-2.6201,-2.6204,-2.6157,-2.6156,-2.6156,0,0,-2.4832,-2.4914,-2.4988,-2.5069,-2.5191,-2.5267,-2.5285,-2.5421,-2.5472,-2.5583,-2.5649,-2.573,-2.5892,-2.5975,-2.6038,-2.6092,-2.6137,-2.612,-2.6113,-2.6172,-2.6176,-2.6179,-2.62,-2.6206,-2.6126,-2.6126,-2.6126,0,-2.4797,-2.4928,-2.502,-2.5106,-2.5173,-2.5255,-2.5332,-2.5407,-2.5554,-2.5599,-2.5607,-2.5816,-2.5901,-2.6028,-2.6041,-2.6089,-2.6115,-2.6104,-2.6168,-2.6172,-2.6177,-2.6198,-2.6206,-2.6123,-2.6124,-2.6124,-2.6124,0,-2.4881,-2.4971,-2.5017,-2.5158,-2.523,-2.531,-2.5417,-2.5479,-2.5533,-2.5608,-2.5722,-2.5828,-2.5948,-2.5983,-2.6035,-2.612,-2.6122,-2.6147,-2.616,-2.6177,-2.6198,-2.6207,-2.6119,-2.612,-2.6121,-2.6122,0,0,-2.4844,-2.5038,-2.5053,-2.512,-2.5264,-2.5336,-2.5423,-2.5541,-2.5594,-2.5694,-2.5771,-2.5909,-2.5936,-2.6007,-2.6071,-2.6122,-2.6161,-2.6143,-2.6148,-2.6144,-2.6264,-2.6243,-2.6251,-2.6193,-2.6195,-2.6197,-2.6254,0,-2.488,-2.5037,-2.5125,-2.5246,-2.5333,-2.5415,-2.5492,-2.559,-2.5664,-2.575,-2.5833,-2.593,-2.5956,-2.6,-2.6055,-2.6144,-2.6187,-2.6142,-2.6268,-2.6271,-2.6235,-2.6262,-2.624,-2.6288,-2.6263,-2.6265,-2.6266,0,-2.4941,-2.5042,-2.5172,-2.531,-2.5349,-2.5416,-2.5534,-2.5614,-2.5729,-2.578,-2.5862,-2.5926,-2.6024,-2.6031,-2.6169,-2.6136,-2.6194,-2.6246,-2.625,-2.6265,-2.6268,-2.6278,-2.6306,-2.6313,-2.628,-2.6279,-2.6278,0,-2.4903,-2.5071,-2.5171,-2.5226,-2.5389,-2.5434,-2.5504,-2.5618,-2.5685,-2.5789,-2.5834,-2.5947,-2.6009,-2.6097,-2.6192,-2.6187,-2.6322,-2.6335,-2.6368,-2.6366,-2.6391,-2.6388,-2.6429,-2.6428,-2.6428,-2.6428,-2.6427,0,-2.4934,-2.5011,-2.5157,-2.5218,-2.5309,-2.5411,-2.5498,-2.5575,-2.5676,-2.5757,-2.5836,-2.5909,-2.603,-2.612,-2.6195,-2.6299,-2.6326,-2.6372,-2.6391,-2.6365,-2.6359,-2.6403,-2.6402,-2.643,-2.6429,-2.6429,-2.6428,0,-2.4905,-2.5005,-2.5121,-2.5267,-2.5306,-2.5366,-2.5492,-2.5557,-2.5637,-2.5738,-2.5768,-2.5894,-2.6004,-2.6108,-2.6255,-2.6306,-2.6412,-2.6436,-2.6372,-2.6383,-2.641,-2.6406,-2.6481,-2.6497,-2.6484,-2.6484,-2.6484,0,-2.4917,-2.4979,-2.5132,-2.5192,-2.526,-2.5355,-2.5424,-2.5529,-2.5598,-2.5736,-2.5785,-2.5902,-2.6,-2.6174,-2.6279,-2.6394,-2.6422,-2.644,-2.6439,-2.6412,-2.6424,-2.6419,-2.6427,-2.6438,-2.6437,-2.6437,-2.6437,0,-2.4929,-2.4978,-2.5074,-2.5189,-2.527,-2.5365,-2.5464,-2.5509,-2.5633,-2.5708,-2.5822,-2.5898,-2.6051,-2.6166,-2.6294,-2.6369,-2.6424,-2.6437,-2.6451,-2.6424,-2.6385,-2.6408,-2.6368,-2.6434,-2.6434,-2.6434,-2.6435,-2.6435,-2.4923,-2.4982,-2.5101,-2.5207,-2.5293,-2.5384,-2.5453,-2.5543,-2.564,-2.5771,-2.5828,-2.5945,-2.6063,-2.624,-2.6315,-2.6409,-2.6421,-2.6441,-2.6446,-2.6449,-2.6445,-2.6371,-2.6433,-2.6433,-2.6433,-2.6433,-2.6433,0,-2.494,-2.5021,-2.5118,-2.5254,-2.5338,-2.5384,-2.5497,-2.5565,-2.5666,-2.5772,-2.5868,-2.6002,-2.6116,-2.6232,-2.6353,-2.6407,-2.6436,-2.6435,-2.6432,-2.6449,-2.6426,-2.6402,-2.641,-2.641,-2.641,-2.641,-2.641,-2.641,-2.4959,-2.5063,-2.5126,-2.5275,-2.5357,-2.5471,-2.5532,-2.5618,-2.5703,-2.5849,-2.5944,-2.6019,-2.6131,-2.6262,-2.6369,-2.6401,-2.6443,-2.6435,-2.6474,-2.6449,-2.645,-2.6451,-2.6429,-2.6443,-2.6443,-2.6489,-2.649,-2.649]}]]